JST895 YBCS-YBCG

Flight info

Callsign JST895
Flight time 1h 52m
Altitude 37000
Route CS Y177 IDRIL DCT NOPAS DCT GOMOL
Aircraft A320/M-SDE3FGHIRWY/LB1

Departure

Time 2026-05-09 05:38
Airport Cairns International Airport (YBCS)

Arrival

Time 2026-05-09 07:30
Airport Gold Coast Airport (YBCG)
Time Latitude Longitude Altitude Speed Heading
2026-05-09 05:18 -16.87361 145.75171 20 ft 0 kts 158°
2026-05-09 05:30 -16.87354 145.75166 19 ft 2 kts 157°
2026-05-09 05:30 -16.87340 145.75162 19 ft 2 kts 157°
2026-05-09 05:31 -16.87326 145.75154 19 ft 2 kts 147°
2026-05-09 05:31 -16.87314 145.75145 19 ft 2 kts 145°
2026-05-09 05:31 -16.87301 145.75136 19 ft 2 kts 146°
2026-05-09 05:31 -16.87289 145.75128 19 ft 2 kts 176°
2026-05-09 05:32 -16.87275 145.75133 19 ft 2 kts 228°
2026-05-09 05:32 -16.87271 145.75142 20 ft 0 kts 255°
2026-05-09 05:34 -16.87271 145.75140 19 ft 0 kts 255°
2026-05-09 05:34 -16.87279 145.75120 19 ft 4 kts 246°
2026-05-09 05:34 -16.87298 145.75078 18 ft 7 kts 244°
2026-05-09 05:34 -16.87321 145.75017 18 ft 9 kts 257°
2026-05-09 05:35 -16.87312 145.74942 18 ft 11 kts 290°
2026-05-09 05:35 -16.87271 145.74869 19 ft 12 kts 322°
2026-05-09 05:35 -16.87192 145.74829 19 ft 13 kts 336°
2026-05-09 05:35 -16.87101 145.74788 19 ft 14 kts 337°
2026-05-09 05:36 -16.87048 145.74713 19 ft 9 kts 261°
2026-05-09 05:36 -16.87076 145.74646 19 ft 10 kts 245°
2026-05-09 05:36 -16.87128 145.74606 19 ft 10 kts 165°
2026-05-09 05:36 -16.87171 145.74623 19 ft 0 kts 157°
2026-05-09 05:37 -16.87226 145.74648 19 ft 31 kts 156°
2026-05-09 05:37 -16.87647 145.74841 19 ft 98 kts 156°
2026-05-09 05:37 -16.88456 145.75201 58 ft 147 kts 156°
2026-05-09 05:37 -16.89429 145.75615 474 ft 154 kts 152°
2026-05-09 05:38 -16.90145 145.76366 1104 ft 152 kts 107°
2026-05-09 05:38 -16.89975 145.77422 1826 ft 156 kts 66°
2026-05-09 05:38 -16.89148 145.78247 2237 ft 177 kts 43°
2026-05-09 05:38 -16.88081 145.79024 2603 ft 193 kts 42°
2026-05-09 05:39 -16.86953 145.79851 3084 ft 203 kts 42°
2026-05-09 05:39 -16.85822 145.80698 3765 ft 202 kts 42°
2026-05-09 05:39 -16.84761 145.81639 4378 ft 201 kts 59°
2026-05-09 05:39 -16.84415 145.83015 4731 ft 207 kts 100°
2026-05-09 05:40 -16.85160 145.84378 5029 ft 233 kts 140°
2026-05-09 05:40 -16.86626 145.85161 5613 ft 246 kts 151°
2026-05-09 05:40 -16.88239 145.85976 5930 ft 262 kts 148°
2026-05-09 05:40 -16.89857 145.86887 6228 ft 271 kts 147°
2026-05-09 05:41 -16.91508 145.87866 7051 ft 273 kts 146°
2026-05-09 05:41 -16.93147 145.88867 7806 ft 276 kts 146°
2026-05-09 05:41 -16.94824 145.89905 8451 ft 282 kts 146°
2026-05-09 05:41 -16.96520 145.90967 9075 ft 288 kts 146°
2026-05-09 05:42 -16.98235 145.92047 9681 ft 293 kts 146°
2026-05-09 05:42 -17.00004 145.93166 10251 ft 298 kts 147°
2026-05-09 05:42 -17.01813 145.94312 10600 ft 312 kts 147°
2026-05-09 05:42 -17.03718 145.95520 10966 ft 325 kts 147°
2026-05-09 05:43 -17.05658 145.96751 11501 ft 330 kts 147°
2026-05-09 05:43 -17.07617 145.97996 12031 ft 333 kts 147°
2026-05-09 05:43 -17.09628 145.99274 12582 ft 337 kts 147°
2026-05-09 05:43 -17.11633 146.00549 13089 ft 340 kts 148°
2026-05-09 05:44 -17.13678 146.01851 13591 ft 343 kts 148°
2026-05-09 05:44 -17.15708 146.03143 14072 ft 347 kts 148°
2026-05-09 05:44 -17.17795 146.04472 14565 ft 351 kts 148°
2026-05-09 05:44 -17.19887 146.05808 15024 ft 355 kts 148°
2026-05-09 05:45 -17.22011 146.07161 15497 ft 358 kts 148°
2026-05-09 05:45 -17.24152 146.08527 15942 ft 362 kts 148°
2026-05-09 05:45 -17.26302 146.09897 16364 ft 365 kts 149°
2026-05-09 05:45 -17.28470 146.11279 16811 ft 368 kts 149°
2026-05-09 05:46 -17.30692 146.12698 17255 ft 371 kts 149°
2026-05-09 05:46 -17.32900 146.14107 17661 ft 375 kts 149°
2026-05-09 05:46 -17.35123 146.15527 18062 ft 378 kts 149°
2026-05-09 05:46 -17.37394 146.16978 18459 ft 381 kts 149°
2026-05-09 05:47 -17.39677 146.18437 18849 ft 385 kts 149°
2026-05-09 05:47 -17.41957 146.19894 19232 ft 388 kts 149°
2026-05-09 05:47 -17.44283 146.21381 19612 ft 391 kts 149°
2026-05-09 05:47 -17.46603 146.22865 19983 ft 395 kts 150°
2026-05-09 05:48 -17.48981 146.24387 20348 ft 398 kts 150°
2026-05-09 05:48 -17.51328 146.25888 20707 ft 401 kts 150°
2026-05-09 05:48 -17.53718 146.27418 21062 ft 404 kts 150°
2026-05-09 05:48 -17.56145 146.28972 21409 ft 407 kts 150°
2026-05-09 05:49 -17.58552 146.30515 21746 ft 410 kts 150°
2026-05-09 05:49 -17.60994 146.32079 22075 ft 413 kts 150°
2026-05-09 05:49 -17.63464 146.33662 22406 ft 416 kts 150°
2026-05-09 05:49 -17.65962 146.35265 22737 ft 419 kts 151°
2026-05-09 05:50 -17.68439 146.36853 23070 ft 421 kts 151°
2026-05-09 05:50 -17.70938 146.38455 23398 ft 423 kts 151°
2026-05-09 05:50 -17.73460 146.40074 23740 ft 425 kts 151°
2026-05-09 05:50 -17.75982 146.41693 24083 ft 427 kts 151°
2026-05-09 05:51 -17.78529 146.43329 24414 ft 429 kts 151°
2026-05-09 05:51 -17.81077 146.44968 24734 ft 431 kts 151°
2026-05-09 05:51 -17.83662 146.46628 25053 ft 433 kts 151°
2026-05-09 05:51 -17.86220 146.48274 25350 ft 436 kts 152°
2026-05-09 05:52 -17.88833 146.49953 25662 ft 438 kts 152°
2026-05-09 05:52 -17.91433 146.51627 25964 ft 440 kts 152°
2026-05-09 05:52 -17.94042 146.53305 26259 ft 443 kts 152°
2026-05-09 05:52 -17.96686 146.55008 26561 ft 445 kts 152°
2026-05-09 05:53 -17.99332 146.56712 26860 ft 447 kts 152°
2026-05-09 05:53 -18.01998 146.58432 27160 ft 449 kts 152°
2026-05-09 05:53 -18.04667 146.60153 27448 ft 451 kts 152°
2026-05-09 05:53 -18.07341 146.61876 27726 ft 453 kts 152°
2026-05-09 05:54 -18.10056 146.63629 28003 ft 456 kts 152°
2026-05-09 05:54 -18.12775 146.65382 28276 ft 458 kts 152°
2026-05-09 05:54 -18.15492 146.67137 28514 ft 460 kts 152°
2026-05-09 05:54 -18.18237 146.68912 28758 ft 462 kts 152°
2026-05-09 05:55 -18.20985 146.70688 29011 ft 464 kts 152°
2026-05-09 05:55 -18.23735 146.72467 29258 ft 466 kts 152°
2026-05-09 05:55 -18.26514 146.74266 29474 ft 469 kts 152°
2026-05-09 05:55 -18.29309 146.76076 29702 ft 471 kts 152°
2026-05-09 05:56 -18.32101 146.77884 29925 ft 474 kts 152°
2026-05-09 05:56 -18.34913 146.79700 30136 ft 476 kts 153°
2026-05-09 05:56 -18.37762 146.81421 30370 ft 476 kts 155°
2026-05-09 05:56 -18.40686 146.83134 30596 ft 478 kts 155°
2026-05-09 05:57 -18.43615 146.84842 30806 ft 481 kts 155°
2026-05-09 05:57 -18.46552 146.86554 31019 ft 483 kts 155°
2026-05-09 05:57 -18.49484 146.88268 31226 ft 485 kts 155°
2026-05-09 05:57 -18.52442 146.89998 31441 ft 487 kts 155°
2026-05-09 05:58 -18.55399 146.91733 31640 ft 489 kts 155°
2026-05-09 05:58 -18.58385 146.93486 31862 ft 491 kts 155°
2026-05-09 05:58 -18.61356 146.95233 32131 ft 491 kts 155°
2026-05-09 05:58 -18.64360 146.97002 32429 ft 490 kts 155°
2026-05-09 05:59 -18.67305 146.98734 32714 ft 490 kts 155°
2026-05-09 05:59 -18.70298 147.00497 33025 ft 490 kts 156°
2026-05-09 05:59 -18.73263 147.02245 33379 ft 489 kts 156°
2026-05-09 05:59 -18.76246 147.04002 33733 ft 488 kts 156°
2026-05-09 06:00 -18.79212 147.05749 34057 ft 487 kts 156°
2026-05-09 06:00 -18.82154 147.07483 34378 ft 486 kts 156°
2026-05-09 06:00 -18.85133 147.09239 34685 ft 485 kts 156°
2026-05-09 06:00 -18.88070 147.10973 34970 ft 485 kts 156°
2026-05-09 06:01 -18.91015 147.12711 35267 ft 484 kts 156°
2026-05-09 06:01 -18.93935 147.14435 35545 ft 484 kts 156°
2026-05-09 06:01 -18.96913 147.16193 35812 ft 483 kts 156°
2026-05-09 06:01 -18.99813 147.17906 36078 ft 483 kts 156°
2026-05-09 06:02 -19.02778 147.19659 36301 ft 483 kts 156°
2026-05-09 06:02 -19.05719 147.21397 36478 ft 484 kts 156°
2026-05-09 06:02 -19.08633 147.23123 36651 ft 485 kts 156°
2026-05-09 06:02 -19.11622 147.24890 36810 ft 486 kts 157°
2026-05-09 06:03 -19.14582 147.26642 36966 ft 487 kts 156°
2026-05-09 06:03 -19.17527 147.28386 37043 ft 488 kts 156°
2026-05-09 06:03 -19.23486 147.31917 37048 ft 490 kts 156°
2026-05-09 06:04 -19.29404 147.35432 37049 ft 489 kts 157°
2026-05-09 06:04 -19.35380 147.38980 37049 ft 490 kts 156°
2026-05-09 06:05 -19.41323 147.42514 37050 ft 490 kts 156°
2026-05-09 06:05 -19.47274 147.46057 37050 ft 490 kts 157°
2026-05-09 06:06 -19.53199 147.49583 37050 ft 490 kts 157°
2026-05-09 06:06 -19.59145 147.53130 37052 ft 490 kts 157°
2026-05-09 06:07 -19.65124 147.56700 37055 ft 491 kts 157°
2026-05-09 06:07 -19.71059 147.60242 37060 ft 490 kts 157°
2026-05-09 06:08 -19.77043 147.63800 37066 ft 490 kts 157°
2026-05-09 06:08 -19.83005 147.67354 37068 ft 491 kts 156°
2026-05-09 06:09 -19.88965 147.70915 37071 ft 491 kts 157°
2026-05-09 06:09 -19.94909 147.74469 37070 ft 492 kts 156°
2026-05-09 06:10 -20.00901 147.78059 37071 ft 492 kts 157°
2026-05-09 06:10 -20.06845 147.81622 37067 ft 492 kts 157°
2026-05-09 06:11 -20.12858 147.85228 37074 ft 492 kts 157°
2026-05-09 06:11 -20.18801 147.88798 37075 ft 493 kts 157°
2026-05-09 06:12 -20.24864 147.92436 37079 ft 501 kts 157°
2026-05-09 06:12 -20.30944 147.96091 37074 ft 508 kts 157°
2026-05-09 06:13 -20.37145 147.99821 37084 ft 515 kts 157°
2026-05-09 06:13 -20.43420 148.03603 37087 ft 520 kts 157°
2026-05-09 06:14 -20.49768 148.07431 37094 ft 522 kts 156°
2026-05-09 06:14 -20.56077 148.11246 37096 ft 522 kts 157°
2026-05-09 06:15 -20.62402 148.15068 37094 ft 522 kts 157°
2026-05-09 06:15 -20.68770 148.18919 37095 ft 523 kts 156°
2026-05-09 06:16 -20.73826 148.21982 37100 ft 523 kts 157°
2026-05-09 06:16 -20.80187 148.25836 37100 ft 524 kts 157°
2026-05-09 06:17 -20.86528 148.29686 37104 ft 522 kts 157°
2026-05-09 06:17 -20.92828 148.33508 37112 ft 523 kts 157°
2026-05-09 06:18 -20.99182 148.37370 37116 ft 524 kts 157°
2026-05-09 06:18 -21.05543 148.41240 37123 ft 524 kts 157°
2026-05-09 06:19 -21.11871 148.45094 37125 ft 524 kts 157°
2026-05-09 06:19 -21.18209 148.48958 37127 ft 524 kts 157°
2026-05-09 06:20 -21.24573 148.52843 37131 ft 524 kts 158°
2026-05-09 06:20 -21.30912 148.56711 37130 ft 526 kts 158°
2026-05-09 06:21 -21.37284 148.60606 37131 ft 525 kts 158°
2026-05-09 06:21 -21.43638 148.64497 37129 ft 524 kts 158°
2026-05-09 06:22 -21.49987 148.68385 37127 ft 525 kts 157°
2026-05-09 06:22 -21.56333 148.72279 37128 ft 525 kts 157°
2026-05-09 06:23 -21.62712 148.76193 37127 ft 525 kts 157°
2026-05-09 06:23 -21.69041 148.80083 37132 ft 526 kts 157°
2026-05-09 06:24 -21.75422 148.84012 37133 ft 526 kts 158°
2026-05-09 06:24 -21.81799 148.87935 37133 ft 526 kts 158°
2026-05-09 06:25 -21.88156 148.91855 37138 ft 526 kts 158°
2026-05-09 06:25 -21.94497 148.95767 37137 ft 526 kts 158°
2026-05-09 06:26 -22.00858 148.99699 37137 ft 525 kts 158°
2026-05-09 06:26 -22.07201 149.03619 37138 ft 526 kts 158°
2026-05-09 06:27 -22.13573 149.07564 37138 ft 525 kts 158°
2026-05-09 06:27 -22.19922 149.11497 37138 ft 526 kts 158°
2026-05-09 06:28 -22.26296 149.15453 37139 ft 526 kts 158°
2026-05-09 06:28 -22.32642 149.19395 37139 ft 526 kts 158°
2026-05-09 06:29 -22.39017 149.23357 37139 ft 526 kts 158°
2026-05-09 06:29 -22.45374 149.27312 37141 ft 527 kts 158°
2026-05-09 06:30 -22.51694 149.31249 37139 ft 527 kts 158°
2026-05-09 06:30 -22.58098 149.35246 37134 ft 527 kts 158°
2026-05-09 06:31 -22.64438 149.39204 37132 ft 528 kts 158°
2026-05-09 06:31 -22.70821 149.43196 37129 ft 527 kts 158°
2026-05-09 06:32 -22.77182 149.47174 37128 ft 528 kts 158°
2026-05-09 06:33 -22.86698 149.53142 37131 ft 528 kts 158°
2026-05-09 06:33 -22.93083 149.57149 37132 ft 528 kts 158°
2026-05-09 06:34 -23.02636 149.63159 37133 ft 529 kts 158°
2026-05-09 06:34 -23.09041 149.67189 37131 ft 529 kts 158°
2026-05-09 06:35 -23.15458 149.71234 37134 ft 529 kts 158°
2026-05-09 06:35 -23.21779 149.75232 37136 ft 529 kts 158°
2026-05-09 06:36 -23.28157 149.79269 37138 ft 529 kts 158°
2026-05-09 06:36 -23.34521 149.83304 37136 ft 529 kts 158°
2026-05-09 06:37 -23.40901 149.87354 37135 ft 529 kts 158°
2026-05-09 06:37 -23.47273 149.91403 37133 ft 530 kts 158°
2026-05-09 06:38 -23.53648 149.95459 37134 ft 530 kts 158°
2026-05-09 06:38 -23.59902 149.99442 37136 ft 531 kts 158°
2026-05-09 06:39 -23.66277 150.03510 37137 ft 530 kts 158°
2026-05-09 06:39 -23.72669 150.07588 37139 ft 530 kts 159°
2026-05-09 06:40 -23.79048 150.11665 37138 ft 531 kts 159°
2026-05-09 06:40 -23.85428 150.15745 37139 ft 532 kts 159°
2026-05-09 06:41 -23.91825 150.19846 37135 ft 532 kts 159°
2026-05-09 06:41 -23.98234 150.23956 37135 ft 532 kts 159°
2026-05-09 06:42 -24.04629 150.28065 37135 ft 531 kts 159°
2026-05-09 06:42 -24.10997 150.32156 37137 ft 532 kts 159°
2026-05-09 06:43 -24.17427 150.36296 37140 ft 532 kts 159°
2026-05-09 06:43 -24.23841 150.40430 37141 ft 532 kts 159°
2026-05-09 06:44 -24.30225 150.44551 37144 ft 531 kts 159°
2026-05-09 06:44 -24.36598 150.48669 37144 ft 532 kts 159°
2026-05-09 06:45 -24.42978 150.52803 37145 ft 530 kts 159°
2026-05-09 06:45 -24.49344 150.56944 37146 ft 534 kts 158°
2026-05-09 06:46 -24.55573 150.61392 37149 ft 535 kts 156°
2026-05-09 06:46 -24.61840 150.65982 37147 ft 537 kts 155°
2026-05-09 06:47 -24.68057 150.70535 37156 ft 538 kts 155°
2026-05-09 06:47 -24.74290 150.75101 37161 ft 537 kts 156°
2026-05-09 06:48 -24.80521 150.79662 37162 ft 537 kts 155°
2026-05-09 06:48 -24.86735 150.84216 37160 ft 538 kts 156°
2026-05-09 06:49 -24.92983 150.88803 37159 ft 537 kts 156°
2026-05-09 06:49 -24.99175 150.93352 37161 ft 537 kts 156°
2026-05-09 06:50 -25.05414 150.97940 37163 ft 539 kts 156°
2026-05-09 06:50 -25.11692 151.02565 37162 ft 538 kts 156°
2026-05-09 06:51 -25.17963 151.07194 37161 ft 536 kts 156°
2026-05-09 06:51 -25.24196 151.11793 37161 ft 538 kts 156°
2026-05-09 06:52 -25.30445 151.16412 37161 ft 539 kts 156°
2026-05-09 06:52 -25.36640 151.21002 37161 ft 537 kts 156°
2026-05-09 06:53 -25.42876 151.25624 37160 ft 537 kts 156°
2026-05-09 06:53 -25.49069 151.30223 37159 ft 537 kts 156°
2026-05-09 06:54 -25.55288 151.34845 37158 ft 537 kts 156°
2026-05-09 06:54 -25.61454 151.39439 37159 ft 537 kts 156°
2026-05-09 06:55 -25.67648 151.44060 37161 ft 536 kts 156°
2026-05-09 06:55 -25.73809 151.48763 37161 ft 539 kts 153°
2026-05-09 06:56 -25.79658 151.54155 37166 ft 549 kts 148°
2026-05-09 06:56 -25.85301 151.59811 37167 ft 547 kts 147°
2026-05-09 06:57 -25.90977 151.65498 37166 ft 548 kts 147°
2026-05-09 06:57 -25.96691 151.71196 37171 ft 549 kts 147°
2026-05-09 06:58 -26.02359 151.76854 37100 ft 549 kts 147°
2026-05-09 06:58 -26.05189 151.79675 36839 ft 548 kts 147°
2026-05-09 06:58 -26.08031 151.82515 36585 ft 547 kts 148°
2026-05-09 06:59 -26.10862 151.85341 36325 ft 547 kts 147°
2026-05-09 06:59 -26.13744 151.88219 36062 ft 548 kts 147°
2026-05-09 06:59 -26.16653 151.91127 35853 ft 547 kts 147°
2026-05-09 06:59 -26.19441 151.93926 35668 ft 545 kts 147°
2026-05-09 07:00 -26.22276 151.96762 35393 ft 547 kts 147°
2026-05-09 07:00 -26.25130 151.99625 35139 ft 546 kts 147°
2026-05-09 07:00 -26.27926 152.02429 34901 ft 547 kts 147°
2026-05-09 07:00 -26.30745 152.05261 34729 ft 546 kts 147°
2026-05-09 07:01 -26.33573 152.08102 34470 ft 546 kts 147°
2026-05-09 07:01 -26.36385 152.10928 34238 ft 545 kts 147°
2026-05-09 07:01 -26.39215 152.13777 33990 ft 546 kts 147°
2026-05-09 07:01 -26.42026 152.16603 33764 ft 546 kts 147°
2026-05-09 07:02 -26.44850 152.19447 33508 ft 547 kts 147°
2026-05-09 07:02 -26.47676 152.22295 33273 ft 548 kts 147°
2026-05-09 07:02 -26.50505 152.25153 33019 ft 549 kts 147°
2026-05-09 07:02 -26.53328 152.28003 32793 ft 549 kts 147°
2026-05-09 07:03 -26.56131 152.30843 32599 ft 549 kts 147°
2026-05-09 07:03 -26.58953 152.33701 32433 ft 547 kts 146°
2026-05-09 07:03 -26.61792 152.36577 32276 ft 547 kts 146°
2026-05-09 07:03 -26.64588 152.39415 32129 ft 545 kts 146°
2026-05-09 07:04 -26.67362 152.42255 31977 ft 545 kts 146°
2026-05-09 07:04 -26.70172 152.45158 31850 ft 543 kts 146°
2026-05-09 07:04 -26.72922 152.48007 31704 ft 542 kts 146°
2026-05-09 07:04 -26.75702 152.50880 31568 ft 542 kts 145°
2026-05-09 07:05 -26.78443 152.53716 31445 ft 542 kts 145°
2026-05-09 07:05 -26.81195 152.56569 31318 ft 541 kts 145°
2026-05-09 07:05 -26.83978 152.59459 31203 ft 540 kts 145°
2026-05-09 07:05 -26.86701 152.62282 31027 ft 540 kts 145°
2026-05-09 07:06 -26.89477 152.65149 30876 ft 539 kts 145°
2026-05-09 07:06 -26.92242 152.67990 30718 ft 538 kts 145°
2026-05-09 07:06 -26.94994 152.70810 30408 ft 538 kts 144°
2026-05-09 07:06 -26.97753 152.73644 30069 ft 537 kts 144°
2026-05-09 07:07 -27.00469 152.76442 29723 ft 535 kts 144°
2026-05-09 07:07 -27.03186 152.79248 29260 ft 529 kts 144°
2026-05-09 07:07 -27.05886 152.82037 28505 ft 528 kts 143°
2026-05-09 07:07 -27.08602 152.84840 27896 ft 530 kts 143°
2026-05-09 07:08 -27.11299 152.87630 27423 ft 528 kts 142°
2026-05-09 07:08 -27.14018 152.90440 27021 ft 527 kts 142°
2026-05-09 07:08 -27.16724 152.93233 26606 ft 523 kts 142°
2026-05-09 07:08 -27.19389 152.95990 25855 ft 519 kts 141°
2026-05-09 07:09 -27.21996 152.98692 25163 ft 505 kts 141°
2026-05-09 07:09 -27.24552 153.01352 24261 ft 487 kts 140°
2026-05-09 07:09 -27.26948 153.03842 23338 ft 469 kts 140°
2026-05-09 07:09 -27.29318 153.06310 22385 ft 451 kts 140°
2026-05-09 07:10 -27.31559 153.08644 21476 ft 435 kts 140°
2026-05-09 07:10 -27.33734 153.10908 20591 ft 420 kts 140°
2026-05-09 07:10 -27.35758 153.13142 19815 ft 406 kts 133°
2026-05-09 07:10 -27.37420 153.15655 19338 ft 386 kts 123°
2026-05-09 07:11 -27.38679 153.18233 19193 ft 374 kts 118°
2026-05-09 07:11 -27.39856 153.20847 19192 ft 373 kts 118°
2026-05-09 07:11 -27.41012 153.23441 19195 ft 372 kts 118°
2026-05-09 07:11 -27.42177 153.26033 19187 ft 371 kts 118°
2026-05-09 07:12 -27.43339 153.28601 18821 ft 371 kts 118°
2026-05-09 07:12 -27.44526 153.31212 17998 ft 374 kts 118°
2026-05-09 07:12 -27.45695 153.33774 17058 ft 373 kts 118°
2026-05-09 07:12 -27.46872 153.36356 16162 ft 368 kts 119°
2026-05-09 07:13 -27.48231 153.38731 15277 ft 361 kts 131°
2026-05-09 07:13 -27.49998 153.40652 14473 ft 350 kts 143°
2026-05-09 07:13 -27.51917 153.42288 13897 ft 336 kts 145°
2026-05-09 07:13 -27.53757 153.43810 13292 ft 325 kts 145°
2026-05-09 07:14 -27.55537 153.45287 12760 ft 313 kts 145°
2026-05-09 07:14 -27.57271 153.46738 12202 ft 304 kts 145°
2026-05-09 07:14 -27.58921 153.48128 11717 ft 294 kts 144°
2026-05-09 07:14 -27.60543 153.49498 11253 ft 284 kts 144°
2026-05-09 07:15 -27.62071 153.50795 10998 ft 269 kts 144°
2026-05-09 07:15 -27.63572 153.52066 11003 ft 267 kts 144°
2026-05-09 07:15 -27.65002 153.53281 10965 ft 254 kts 144°
2026-05-09 07:15 -27.66409 153.54475 10675 ft 246 kts 144°
2026-05-09 07:16 -27.67758 153.55620 10338 ft 239 kts 144°
2026-05-09 07:16 -27.69038 153.56766 9951 ft 235 kts 140°
2026-05-09 07:16 -27.70196 153.58054 9568 ft 231 kts 133°
2026-05-09 07:16 -27.71187 153.59436 9241 ft 225 kts 129°
2026-05-09 07:17 -27.72097 153.60825 8936 ft 217 kts 128°
2026-05-09 07:17 -27.72957 153.62152 8721 ft 204 kts 128°
2026-05-09 07:17 -27.73784 153.63422 8390 ft 197 kts 128°
2026-05-09 07:17 -27.74590 153.64647 8077 ft 190 kts 129°
2026-05-09 07:18 -27.75358 153.65814 7761 ft 183 kts 128°
2026-05-09 07:18 -27.76099 153.66946 7439 ft 177 kts 128°
2026-05-09 07:18 -27.76821 153.68054 7117 ft 172 kts 130°
2026-05-09 07:18 -27.77732 153.68854 6771 ft 163 kts 167°
2026-05-09 07:19 -27.78820 153.68785 6422 ft 158 kts 195°
2026-05-09 07:19 -27.79852 153.68378 6051 ft 157 kts 200°
2026-05-09 07:19 -27.80868 153.67911 5676 ft 156 kts 201°
2026-05-09 07:19 -27.81855 153.67441 5318 ft 154 kts 201°
2026-05-09 07:20 -27.82841 153.66965 5004 ft 154 kts 201°
2026-05-09 07:20 -27.83829 153.66478 4978 ft 154 kts 201°
2026-05-09 07:20 -27.84784 153.66002 4953 ft 146 kts 201°
2026-05-09 07:20 -27.85716 153.65536 4955 ft 144 kts 201°
2026-05-09 07:21 -27.86620 153.65083 4783 ft 141 kts 201°
2026-05-09 07:21 -27.87514 153.64632 4435 ft 143 kts 201°
2026-05-09 07:21 -27.88431 153.64163 4115 ft 144 kts 201°
2026-05-09 07:21 -27.89340 153.63692 3968 ft 142 kts 201°
2026-05-09 07:22 -27.90245 153.63219 3966 ft 144 kts 201°
2026-05-09 07:22 -27.91151 153.62746 3961 ft 145 kts 201°
2026-05-09 07:22 -27.92078 153.62264 3961 ft 145 kts 201°
2026-05-09 07:22 -27.93002 153.61784 3960 ft 146 kts 201°
2026-05-09 07:23 -27.93931 153.61301 3959 ft 146 kts 201°
2026-05-09 07:23 -27.94845 153.60826 3963 ft 146 kts 201°
2026-05-09 07:23 -27.95769 153.60344 3961 ft 143 kts 201°
2026-05-09 07:23 -27.96608 153.59760 3734 ft 142 kts 213°
2026-05-09 07:24 -27.97382 153.59049 3388 ft 146 kts 217°
2026-05-09 07:24 -27.98130 153.58279 3066 ft 147 kts 219°
2026-05-09 07:24 -27.98882 153.57480 2756 ft 148 kts 219°
2026-05-09 07:24 -27.99629 153.56680 2448 ft 148 kts 220°
2026-05-09 07:25 -28.00382 153.55882 2147 ft 148 kts 219°
2026-05-09 07:25 -28.01131 153.55098 1874 ft 147 kts 218°
2026-05-09 07:25 -28.01878 153.54318 1609 ft 145 kts 219°
2026-05-09 07:25 -28.02618 153.53545 1390 ft 143 kts 219°
2026-05-09 07:26 -28.03343 153.52783 1366 ft 137 kts 219°
2026-05-09 07:26 -28.04027 153.52061 1355 ft 135 kts 219°
2026-05-09 07:26 -28.04715 153.51340 1350 ft 132 kts 218°
2026-05-09 07:26 -28.05384 153.50639 1358 ft 133 kts 219°
2026-05-09 07:27 -28.06070 153.49918 1360 ft 133 kts 219°
2026-05-09 07:27 -28.06749 153.49205 1360 ft 133 kts 219°
2026-05-09 07:27 -28.07427 153.48492 1361 ft 134 kts 220°
2026-05-09 07:27 -28.08119 153.47765 1362 ft 134 kts 219°
2026-05-09 07:28 -28.08798 153.47051 1367 ft 134 kts 220°
2026-05-09 07:28 -28.09563 153.46484 1342 ft 130 kts 184°
2026-05-09 07:28 -28.10425 153.46701 1382 ft 125 kts 152°
2026-05-09 07:28 -28.11179 153.47186 1323 ft 121 kts 147°
2026-05-09 07:29 -28.11896 153.47725 1104 ft 123 kts 148°
2026-05-09 07:29 -28.12630 153.48212 875 ft 122 kts 152°
2026-05-09 07:29 -28.13382 153.48673 632 ft 121 kts 153°
2026-05-09 07:29 -28.14138 153.49130 417 ft 122 kts 153°
2026-05-09 07:30 -28.14881 153.49580 210 ft 122 kts 151°
2026-05-09 07:30 -28.15632 153.50061 80 ft 120 kts 151°
2026-05-09 07:30 -28.16265 153.50456 27 ft 68 kts 152°
2026-05-09 07:30 -28.16444 153.50569 26 ft 10 kts 149°
2026-05-09 07:31 -28.16564 153.50673 25 ft 19 kts 106°
2026-05-09 07:31 -28.16552 153.50745 24 ft 0 kts 64°
2026-05-09 07:31 -28.16541 153.50769 24 ft 5 kts 61°
2026-05-09 07:31 -28.16518 153.50815 24 ft 5 kts 72°
2026-05-09 07:32 -28.16589 153.50877 23 ft 16 kts 143°
2026-05-09 07:32 -28.16700 153.50952 22 ft 21 kts 150°
2026-05-09 07:32 -28.16804 153.51019 22 ft 18 kts 149°
2026-05-09 07:32 -28.16862 153.51103 23 ft 6 kts 88°
2026-05-09 07:33 -28.16861 153.51123 23 ft 6 kts 89°
2026-05-09 07:33 -28.16945 153.51215 23 ft 6 kts 149°
2026-05-09 07:33 -28.16964 153.51245 24 ft 5 kts 85°
2026-05-09 07:34 -28.16948 153.51286 24 ft 6 kts 60°
2026-05-09 07:34 -28.16931 153.51320 24 ft 4 kts 60°
2026-05-09 07:34 -28.16924 153.51335 24 ft 0 kts 61°
2026-05-09 07:34 -28.16923 153.51338 24 ft 0 kts 62°